weather.gov     
National Weather Service

Terminal Aerodrome Forecast
NWS Homepage
This page is being discontinued on March 12, 2014.
The same data is available at this site. Please update your bookmarks.
Thank you, and we apologize for the inconvenience.
Please send an email to SR-SRH.Webmaster@noaa.gov with any concerns.


Current Version
Previous Version:    01  02  03  04  05  06  07  08  09  10  11  12  13  14  15  16  17  18  19  20  21  22  23  24  25  26  27  28  29  30  
   31  32  33  
[Printable]
294
FTUS44 KOHX 242300
TAFBNA
TAF
KBNA 242335Z 2500/2524 20012G18KT P6SM SCT080 BKN250
     FM250400 17015G25KT P6SM VCTS BKN050CB
      TEMPO 2504/2507 VRB20G40KT 2SM TSRA OVC050CB
     FM250700 22012G22KT P6SM VCSH OVC015
     FM251400 30012G20KT P6SM BKN020
     FM251800 32015G22KT P6SM SCT045=


U.S. Dept. of Commerce
NOAA National Weather Service
1325 East West Highway
Silver Spring, MD 20910
E-mail: w-nws.webmaster@noaa.gov
Page last modified: May 16, 2007
NATIONAL WEATHER SERVICE: for Safety, for Work, for Fun - FOR LIFE